Location: Unspecified
(0.0000°N, 0.0000°E)
Time: 12:58:53
(UTC+00:00)

ISS - Pass Details

Date: 26 May 2017
Orbit: 402 x 408 km, 51.6° (Epoch: 26 May)

Event Time Altitude Azimuth Distance (km) Brightness Sun altitude
Rises 04:46:11 0° 349° (N) 2,296 0.1 -16.5°
Reaches altitude 10° 04:48:44 10° 10° (N) 1,440 -0.6 -15.9°
Maximum altitude 04:50:58 17° 54° (NE) 1,084 -0.6 -15.4°
Drops below altitude 10° 04:53:12 10° 98° (E) 1,444 -0.1 -14.9°
Sets 04:55:45 0° 119° (ESE) 2,305 0.6 -14.3°
